Location: *
(34.6903°N, 135.5184°E)
Time: 02:36:18
(UTC+00:00)

CZ-3 R/B - Pass Details

Date: 22 September 2019
Orbit: 334 x 10286 km, 28.4° (Epoch: 16 October)

Event Time Altitude Azimuth Distance (km) Brightness Sun altitude
Rises 16:39:28 0° 267° (W) 15,307 7.3 -46.8°
Reaches altitude 10° 16:56:54 10° 268° (W) 14,236 7.1 -44.3°
Enters shadow 17:27:33 30° 267° (W) 10,733 6.3 -39.4°
Exits shadow 17:33:17 34° 266° (W) 9,817 6.1 -38.4°
Maximum altitude 18:01:43 71° 197° (SSW) 4,384 4.5 -33.4°
Drops below altitude 10° 18:15:49 10° 115° (ESE) 4,360 5.3 -30.8°
Sets 18:17:57 0° 112° (ESE) 4,842 5.7 -30.4°
